STARLINK-35584, 66106

Orbit data source: Space-Track

STARLINK-35584, 66106 is a payload satellite owned by SpaceX/Seattle (US) in LEO that was launched on Sun, 19 Oct 2025 UTC via an FALCON 9 launch vehicle from the Air Force Western Test Range (AFWTR). Payload-class satellites include a variety of spacecraft equipped with specific instruments for various scientific and technological missions. These include communications satellites like Starlink; space stations such as the ISS; scientific satellites like the Hubble; Earth observation satellites from companies like Planet Labs, Umbra, and HawkEye 360; GPS; miniature CubeSats for education and research; and military/defense satellites.

Loading next visibility...
Identifier
66106, 2025-236W
Orbit
LEO
Country
Flag of USUS
Related business
Manufacturer
SpaceX/Seattle
Mission
Operational Commercial Communications
Bus & Motor
STARLINK V2MO, Unknown motor
Mass
575 kg wet, ~530 kg dry
Launch date (UTC)
2025-10-19 (6 months ago)
Launch vehicle
FALCON 9
Launch site
Air Force Western Test Range (AFWTR)
Object type
Payload
Rocket body
Debris
Shape & HBR
Box + 2 Pan, 17.7 m
Radar Cross Section
36.964 m²

Expand to show TLE details & history
Last TLE update: 16 hours ago

TLE from 16 hours ago
0 STARLINK-35584
1 66106U 25236W   26095.00797808  .00034569  00000-0  11758-2 0  9999
2 66106  53.1612 341.6528 0001169  83.4099 276.7035 15.30147300 26976
Epoch: 2026-04-05T00:11Z
TLE epoch observation values (Epoch: 2026-04-05T00:11:29.306Z)
Latitude
0.00002°
Longitude
145.46113°
Altitude
476.179 km
Speed
7.629 km/s
True Right ascension
22h 46m 36s
True Declination
0° 00' 00"
Sunlit
Object was in daylight at epoch
Visualization orbit readout
Latitude
Unknown
Longitude
Unknown
Altitude
Unknown
Speed
Unknown
Apparent Right ascension
Unknown
Apparent Declination
Unknown
Sunlit
N/A
Visualization observer readout
Local Sidereal Time
21:54:12
Azimuth
Unknown
Elevation
Unknown
Doppler factor
Unknown
Orbital elements
Apogee altitude
476.43 km
Perigee altitude
474.827 km
Semi-major axis
6,853.766 km
Eccentricity
0.00012
Inclination
53.1612°
RAAN
341.6528°
Arg. of periapsis
83.4099°
True anomaly
276.6902°
Mean anomaly
276.7035°
Eccentric anomaly
276.69685°
Mean motion
3.82516 °/min
Orbital period
94.11 mins
BSTAR
0.0011758
Loading maneuver chart data...
Computing Atmospheric mass density...
Loading historical data...
Loading historical data...
Loading historical data...
Loading historical data...
Loading historical data...
Loading historical data...
Loading historical data...

Documentation

Showing up to 5 results
|